#timestamp,LO_Frequency,Hit,StdDev 
1629702015.5,286047001.0,P
1629702035.4,286047000.3,N
1629702055.2,286046999.9,N
1629702075.0,286047003.7,N
1629702075.9,286047003.7,N
1629702095.8,286047005.5,Y
1629702115.6,286047003.6,P
1629702135.4,286047003.1,P
1629702155.3,286047000.4,N
1629702175.1,286046999.3,N
1629702195.8,286046997.1,N
1629702215.7,286046996.1,N
1629702235.5,286046996.0,N
1629702255.3,286046993.4,N
1629702275.2,286046994.2,N
1629702295.0,286046992.5,N
1629702295.9,286046992.5,N
1629702315.7,286046992.3,N
1629702335.6,286046991.9,N
1629702355.4,286046992.2,N
1629702375.2,286046992.7,N
1629702395.1,286046992.8,N
1629702396.0,286046992.8,N
1629702415.8,286046991.6,N
1629702435.6,286046988.6,N
1629702455.5,286046991.4,N
1629702475.3,286046991.4,N
1629702495.1,286046991.0,N
1629702515.9,286046990.7,N
1629702535.7,286046990.9,N
1629702555.5,286046990.6,N
1629702575.4,286046991.5,N
1629702595.2,286046990.2,N
1629702615.0,286046990.5,N
1629702615.9,286046990.5,N
1629702635.8,286046990.5,N
1629702655.6,286046990.9,N
1629702675.4,286046990.1,Y
1629702695.3,286046998.8,P
1629702715.1,286046998.8,N
1629702735.8,286046999.0,N
1629702755.7,286046999.5,N
1629702775.5,286046999.3,N
1629702795.3,286046999.6,N
1629702815.2,286046999.5,N
1629702835.0,286046998.4,N
1629702835.9,286046998.4,N
1629702855.7,286047001.1,N
1629702875.6,286046998.3,N
1629702895.4,286047001.2,N
1629702915.2,286047000.2,N
1629702935.1,286046999.9,N
1629702936.0,286046999.9,N
1629702955.8,286047002.5,N
1629702975.6,286047001.5,N
1629702995.5,286047002.6,N
1629703015.3,286047001.8,N
1629703035.1,286047001.6,N
1629703055.9,286047004.1,N
1629703075.7,286047001.6,N
1629703095.5,286047002.6,N
1629703115.4,286047002.6,N
1629703135.2,286047002.3,N
1629703155.0,286047001.3,N
1629703155.9,286047001.3,N
1629703175.8,286047004.0,N
1629703195.6,286047002.2,N
1629703215.4,286046999.7,N
1629703235.3,286047002.6,N
1629703255.1,286046999.9,N
1629703275.8,286047002.8,N
1629703295.7,286046999.9,N
1629703315.5,286047000.6,N
1629703335.3,286047000.3,N
1629703355.2,286047001.0,N
1629703375.0,286047001.1,N
1629703375.9,286047001.1,N
1629703395.7,286046999.0,N
1629703415.6,286046998.7,N
1629703435.4,286046999.3,N
1629703455.2,286046998.4,N
1629703475.1,286046998.7,N
1629703476.0,286046998.7,N
1629703495.8,286046998.2,N
1629703515.6,286046998.8,N
1629703535.5,286046998.5,N
1629703555.3,286046998.2,N
1629703575.1,286046999.0,N
1629703595.9,286046996.9,N
1629703615.7,286046997.6,N
1629703635.5,286046998.0,N
1629703655.4,286046997.5,N
1629703675.2,286046996.8,N
1629703695.0,286046996.7,N
1629703695.9,286046996.7,N
1629703715.8,286046997.0,N
1629703735.6,286046997.4,N
1629703755.4,286046997.1,N
1629703775.3,286046999.2,N
1629703795.1,286046999.6,N
1629703815.8,286046996.9,N
1629703835.7,286046999.1,N
1629703855.5,286046999.1,N
1629703875.3,286046998.5,N
1629703895.2,286046998.4,N
1629703915.0,286046998.5,N
1629703915.9,286046998.5,N
1629703935.7,286047000.8,N
1629703955.6,286046999.9,N
1629703975.4,286047000.9,N
1629703995.2,286047000.0,N
1629704015.1,286047000.2,N
1629704016.0,286047000.2,N
1629704035.8,286047000.5,N
1629704055.6,286047000.0,N
1629704075.5,286047000.0,N
1629704095.3,286047002.5,N
1629704115.1,286046999.7,N
1629704135.9,286047001.8,N
1629704155.7,286047004.0,N
1629704175.5,286047003.8,N
1629704195.4,286047004.2,N
1629704215.2,286047006.0,N
1629704235.0,286047005.4,N
1629704235.9,286047005.4,N
1629704255.8,286047003.1,N
1629704275.6,286047003.2,N
1629704295.4,286047005.9,N
1629704315.3,286047002.9,N
1629704335.1,286047003.1,N
1629704355.8,286047005.9,N
1629704375.7,286047003.3,N
1629704395.5,286047005.5,N
1629704415.3,286047003.6,N
1629704435.2,286047005.3,N
1629704455.0,286047005.7,N
1629704455.9,286047005.7,N
1629704475.7,286047005.6,N
1629704495.6,286047003.0,N
1629704515.4,286047001.3,N
1629704535.2,286047002.5,N
1629704555.1,286046999.9,N
1629704556.0,286046999.9,N
1629704575.8,286047002.6,N
1629704595.7,286047001.6,N
1629704615.5,286047003.9,N
1629704635.3,286047001.3,N
1629704655.2,286047006.0,Y
1629704675.9,286047000.1,P
1629704695.7,286047002.7,N
1629704715.6,286047002.2,N
1629704735.4,286047002.4,N
1629704755.2,286046999.8,N
1629704775.0,286047002.6,N
1629704776.0,286047002.6,N
1629704795.8,286047001.2,N
1629704815.6,286047002.2,N
1629704835.5,286047002.2,N
1629704855.3,286047002.3,N
1629704875.1,286047001.9,N
1629704895.9,286047002.0,N
1629704915.7,286047002.3,N
1629704935.5,286046999.9,N
1629704955.4,286047002.6,N
1629704975.2,286047002.3,N
1629704995.0,286047002.0,N
1629704995.9,286047002.0,N
1629705015.8,286047002.5,N
1629705035.6,286047002.3,N
1629705055.4,286047000.1,N
1629705075.3,286047000.4,N
1629705095.1,286047002.1,N
1629705096.0,286047002.1,N
1629705115.8,286047004.0,Y
1629705135.7,286047000.3,P
1629705155.5,286047002.6,P
1629705175.3,286047000.3,N
1629705195.2,286046998.6,N
1629705215.9,286046999.2,N
1629705235.7,286046998.8,N
1629705255.6,286046999.3,N
1629705275.4,286046998.2,N
1629705295.2,286047000.0,N
1629705315.1,286047002.6,N
1629705316.0,286047002.6,N
1629705335.8,286047001.9,N
1629705355.6,286047000.3,N
1629705375.5,286047000.6,N
1629705395.3,286047001.9,N
1629705415.1,286047004.3,N
1629705435.9,286047004.2,N
1629705455.7,286047003.7,N
1629705475.5,286047005.8,Y
1629705495.4,286047006.0,P
1629705515.2,286047006.4,N
1629705535.0,286047008.8,P
1629705535.9,286047008.8,Y
1629705555.8,286047001.8,P
1629705575.6,286047001.6,N
1629705595.4,286047004.4,N
